カタログに戻る

CZ-6A DEB

運用中PO
NORAD 61279·DEBRIS·🇨🇳 China

打ち上げ Aug 6, 2024 から Taiyuan Satellite Launch Center

Loading…

次のパス (今後24時間)

TLE

最新Source: Space-Track

元期: Sep 14, 2026, 13:11 UTC

1 61279U 24140SQ  26257.54978909  .00000913  00000-0  43897-3 0  9996
2 61279  89.3692 298.2681 0065250 267.4959  91.8759 14.17028915105867

AllMySatでCZ-6A DEBをリアルタイム追跡

Download on the App Store